Midland Airpark, TX

10:58 AM CDT on August 17, 2017 (GMT -0500)
Midland

Weather History for KMDD - May, 2013

Change the Weather History Date:

Tuesday, May 14, 2013

  Actual Average (KMAF) Record (KMAF)
Temperature  
Mean Temperature 74 °F -  
Max Temperature 88 °F 87 °F 102 °F (2003)
Min Temperature 61 °F 59 °F 41 °F (1953)
Cooling Degree Days 10    
Growing Degree Days 24 (Base 50)    
Moisture  
Dew Point 48 °F    
Average Humidity 44    
Maximum Humidity 65    
Minimum Humidity 18    
Precipitation  
Precipitation 0.04 in - - ()
Sea Level Pressure  
Sea Level Pressure 30.09 in    
Wind  
Wind Speed 10 mph (South)    
Max Wind Speed 23 mph    
Max Gust Speed 33 mph    
Visibility 10 miles    
Events Rain , Thunderstorm    
Averages and records for this station are not official NWS values.
T = Trace of Precipitation, MM = Missing Value Source: NWS Daily Summary

Daily Weather History Graph

Daily Weather History Graph

Search for Another Location

Airport or City:

Trip Planner

Search our weather history database for the weather conditions in past years. The results will help you decide how hot, cold, wet, or windy it might be!

Date:

Astronomy

May. 14, 2013 Rise Set
Actual Time 6:51 AM CDT 8:38 PM CDT
Civil Twilight 6:24 AM CDT 9:05 PM CDT
Nautical Twilight 5:52 AM CDT 9:37 PM CDT
Astronomical Twilight 5:18 AM CDT 10:12 PM CDT
Moon 10:32 AM CDT (5/14) No Moon Set
Length of Visible Light 14h 40m
Length of Day
13h 46m
Waxing Crescent, 19% of the Moon is Illuminated
May 14
Waxing Crescent
May 17
First Quarter
May 24
Full
May 31
Last Quarter
Jun 8
New

Hourly Weather History & Observations

Time (CDT) Temp. Dew Point Humidity Pressure Visibility Wind Dir Wind Speed Gust Speed Precip Events Conditions
12:15 AM 72.1 °F 46.6 °F 40% 30.20 in 10.0 mi South 11.5 mph 16.1 mph N/A   Clear
12:35 AM 72.0 °F 46.8 °F 41% 30.20 in 10.0 mi South 11.5 mph 17.3 mph N/A   Clear
12:55 AM 71.6 °F 47.1 °F 42% 30.19 in 10.0 mi South 10.4 mph - N/A   Clear
1:15 AM 71.2 °F 47.3 °F 42% 30.19 in 10.0 mi South 10.4 mph - N/A   Clear
1:35 AM 70.7 °F 47.3 °F 43% 30.19 in 10.0 mi South 10.4 mph - N/A   Clear
1:55 AM 70.2 °F 47.3 °F 44% 30.18 in 10.0 mi South 9.2 mph - N/A   Clear
2:15 AM 69.3 °F 47.5 °F 46% 30.18 in 10.0 mi South 9.2 mph - N/A   Clear
2:35 AM 68.9 °F 47.7 °F 47% 30.17 in 10.0 mi South 6.9 mph - N/A   Clear
2:55 AM 68.2 °F 47.8 °F 48% 30.16 in 10.0 mi SSE 6.9 mph - N/A   Clear
3:15 AM 67.5 °F 47.8 °F 49% 30.16 in 10.0 mi SSE 5.8 mph - N/A   Clear
3:35 AM 66.7 °F 48.0 °F 51% 30.16 in 10.0 mi SSE 5.8 mph - N/A   Clear
3:55 AM 66.2 °F 48.2 °F 52% 30.15 in 10.0 mi SSE 5.8 mph - N/A   Clear
4:15 AM 65.5 °F 48.2 °F 54% 30.15 in 10.0 mi SSE 5.8 mph - N/A   Clear
4:35 AM 65.5 °F 48.4 °F 54% 30.15 in 10.0 mi SSE 6.9 mph - N/A   Clear
4:55 AM 64.8 °F 48.4 °F 55% 30.15 in 10.0 mi SSE 5.8 mph - N/A   Clear
5:15 AM 63.9 °F 48.4 °F 57% 30.15 in 10.0 mi South 6.9 mph - N/A   Clear
5:35 AM 63.3 °F 48.4 °F 58% 30.15 in 10.0 mi South 4.6 mph - N/A   Clear
5:55 AM 62.8 °F 48.4 °F 59% 30.15 in 10.0 mi SSE 5.8 mph - N/A   Clear
6:15 AM 62.2 °F 48.4 °F 60% 30.15 in 10.0 mi SSE 4.6 mph - N/A   Clear
6:35 AM 61.9 °F 48.4 °F 61% 30.15 in 10.0 mi SSE 5.8 mph - N/A   Clear
6:55 AM 61.7 °F 48.6 °F 62% 30.15 in 10.0 mi SSE 5.8 mph - N/A   Clear
7:15 AM 61.9 °F 48.6 °F 62% 30.16 in 10.0 mi SSE 6.9 mph - N/A   Clear
7:35 AM 62.8 °F 48.7 °F 60% 30.16 in 10.0 mi SSE 5.8 mph - N/A   Clear
7:55 AM 63.9 °F 49.3 °F 59% 30.16 in 10.0 mi SSE 8.1 mph - N/A   Clear
8:15 AM 65.5 °F 50.2 °F 58% 30.15 in 10.0 mi SSE 9.2 mph - N/A   Clear
8:35 AM 66.2 °F 50.4 °F 57% 30.15 in 10.0 mi SSE 10.4 mph - N/A   Clear
8:55 AM 67.3 °F 50.7 °F 55% 30.15 in 10.0 mi South 10.4 mph - N/A   Clear
9:15 AM 69.8 °F 51.1 °F 51% 30.16 in 10.0 mi South 11.5 mph 16.1 mph N/A   Clear
9:35 AM 71.2 °F 51.3 °F 49% 30.16 in 10.0 mi South 12.7 mph - N/A   Clear
9:55 AM 72.7 °F 51.6 °F 47% 30.15 in 10.0 mi South 9.2 mph - N/A   Clear
10:15 AM 74.5 °F 51.6 °F 45% 30.15 in 10.0 mi South 10.4 mph - N/A   Clear
10:35 AM 75.7 °F 51.8 °F 43% 30.14 in 10.0 mi SSW 8.1 mph - N/A   Clear
10:55 AM 76.5 °F 51.1 °F 41% 30.14 in 10.0 mi SSW 8.1 mph - N/A   Clear
11:15 AM 78.1 °F 50.9 °F 39% 30.14 in 10.0 mi South 10.4 mph - N/A   Clear
11:35 AM 79.5 °F 50.4 °F 36% 30.14 in 10.0 mi SSW 9.2 mph 16.1 mph N/A   Clear
11:55 AM 80.6 °F 49.5 °F 34% 30.13 in 10.0 mi South 8.1 mph - N/A   Clear
12:15 PM 81.3 °F 49.5 °F 33% 30.12 in 10.0 mi SSE 8.1 mph - N/A   Clear
12:35 PM 83.1 °F 47.7 °F 29% 30.12 in 10.0 mi SW 9.2 mph 16.1 mph N/A   Clear
12:55 PM 83.7 °F 46.4 °F 27% 30.10 in 10.0 mi SW 3.5 mph 16.1 mph N/A   Clear
1:15 PM 83.7 °F 46.2 °F 27% 30.09 in 10.0 mi WSW 4.6 mph - N/A   Clear
1:35 PM 86.0 °F 45.3 °F 24% 30.08 in 10.0 mi South 8.1 mph - N/A   Scattered Clouds
1:55 PM 84.4 °F 45.0 °F 25% 30.07 in 10.0 mi South 13.8 mph - N/A   Scattered Clouds
2:15 PM 85.3 °F 43.7 °F 23% 30.07 in 10.0 mi South 8.1 mph 21.9 mph N/A   Scattered Clouds
2:35 PM 86.7 °F 42.8 °F 21% 30.06 in 10.0 mi South 10.4 mph - N/A   Clear
2:55 PM 87.3 °F 41.2 °F 20% 30.04 in 10.0 mi South 12.7 mph 19.6 mph N/A   Clear
3:15 PM 87.6 °F 41.4 °F 20% 30.03 in 10.0 mi SW 10.4 mph - N/A   Clear
3:35 PM 87.6 °F 41.2 °F 20% 30.01 in 10.0 mi South 10.4 mph 19.6 mph N/A   Scattered Clouds
3:55 PM 86.9 °F 40.5 °F 19% 30.01 in 10.0 mi South 17.3 mph 21.9 mph N/A   Scattered Clouds
4:15 PM 85.6 °F 40.1 °F 20% 30.00 in 10.0 mi SSW 10.4 mph 18.4 mph N/A   Clear
4:35 PM 88.3 °F 41.2 °F 19% 29.98 in 10.0 mi South 10.4 mph - N/A   Clear
4:55 PM 87.4 °F 38.7 °F 18% 29.98 in 10.0 mi SSE 12.7 mph 19.6 mph N/A   Clear
5:15 PM 86.7 °F 37.9 °F 18% 29.98 in 10.0 mi SSE 18.4 mph - N/A Thunderstorm Clear
5:35 PM 82.2 °F 45.7 °F 28% 29.96 in 10.0 mi South 21.9 mph 33.4 mph N/A   Scattered Clouds
5:55 PM 81.0 °F 45.5 °F 29% 29.97 in 10.0 mi South 17.3 mph 25.3 mph N/A   Clear
6:15 PM 79.9 °F 43.7 °F 28% 30.02 in 10.0 mi SSW 16.1 mph - N/A   Scattered Clouds
6:35 PM 72.0 °F 52.7 °F 51% 30.05 in 4.0 mi SSW 20.7 mph 31.1 mph 0.01 in Rain , Thunderstorm Rain
6:55 PM 68.2 °F 56.1 °F 65% 30.03 in 7.0 mi South 9.2 mph 20.7 mph 0.03 in Rain Rain
7:15 PM 69.6 °F 56.1 °F 62% 29.97 in 10.0 mi SE 11.5 mph - 0.01 in Rain Light Rain
7:35 PM 70.9 °F 54.7 °F 56% 29.96 in 10.0 mi SE 12.7 mph 19.6 mph 0.01 in   Scattered Clouds
7:55 PM 70.7 °F 53.2 °F 54% 29.98 in 10.0 mi SSE 15.0 mph 24.2 mph 0.01 in   Clear
8:15 PM 69.8 °F 52.7 °F 54% 29.99 in 10.0 mi SSE 15.0 mph - N/A   Clear
8:35 PM 69.8 °F 52.0 °F 53% 29.99 in 10.0 mi SSE 19.6 mph 26.5 mph N/A   Clear
8:55 PM 69.4 °F 51.4 °F 53% 29.99 in 10.0 mi SSE 17.3 mph 27.6 mph N/A   Clear
9:15 PM 68.4 °F 52.0 °F 56% 29.99 in 10.0 mi South 18.4 mph 24.2 mph N/A   Clear
9:35 PM 67.8 °F 52.9 °F 59% 30.00 in 10.0 mi South 15.0 mph 21.9 mph N/A   Clear
9:55 PM 69.6 °F 50.4 °F 50% 30.01 in 10.0 mi South 13.8 mph - N/A   Clear
10:15 PM 71.1 °F 48.6 °F 45% 30.01 in 10.0 mi SSW 15.0 mph 20.7 mph N/A   Clear
10:35 PM 72.5 °F 47.5 °F 41% 30.01 in 10.0 mi South 16.1 mph 24.2 mph N/A   Clear
10:55 PM 72.5 °F 47.5 °F 41% 30.01 in 10.0 mi SSW 19.6 mph - N/A   Scattered Clouds
11:15 PM 70.5 °F 49.6 °F 47% 30.00 in 10.0 mi South 23.0 mph 29.9 mph N/A   Clear
11:35 PM 68.7 °F 51.1 °F 53% 30.00 in 10.0 mi South 21.9 mph 29.9 mph N/A   Clear
11:55 PM 66.7 °F 52.5 °F 60% 29.99 in 10.0 mi South 20.7 mph 26.5 mph N/A   Clear